Regional Weather Roundup
Issued by NWS

Home | Current Version | Previous Version | Graphics & Text | Print | Product List | Glossary On
Versions: 1 2 3 4 5 6 7 8 9 10 11 12 13 14 15 16 17 18 19 20 21 22 23 24 25 26 27 28 29 30 31 32 33 34 35 36 37 38 39 40 41 42 43 44 45 46 47 48 49 50
000
ASUS45 KSLC 060110
RWRUT

UTAH REGIONAL WEATHER ROUNDUP
NATIONAL WEATHER SERVICE SALT LAKE CITY UT
700 PM MDT TUE MAY 05 2015

UTZ001>011-023>025-060200-

NORTHERN UTAH

CITY           SKY/WX    TMP DP  RH WIND       PRES   REMARKS
HILL AFB       NOT AVBL
LOGAN          SUNNY     59  48  67 S8        29.78R
OGDEN          PTSUNNY   66  43  43 NW3       29.76S
PROVO AIRPORT  NOT AVBL
SALT LAKE CITY PTSUNNY   66  44  45 CALM      29.75S
VERNAL         LGT RAIN  52  48  86 W5        29.81F
WENDOVER       CLOUDY    64  41  42 E13       29.79S
HEBER CITY     CLOUDY    59  45  58 SW5       29.80S
WEST JORDAN    SUNNY     66  46  48 CALM      29.77F

$$

UTZ012>022-026-027-060200-

SOUTHERN/CENTRAL UTAH

CITY           SKY/WX    TMP DP  RH WIND       PRES   REMARKS
BLANDING       CLOUDY    56  48  76 SW13G21   29.91S
BRYCE CANYON   CLOUDY    46  38  73 NW18G35   29.95R
CEDAR CITY     TSTM      43  38  82 CALM      29.90R
DELTA          CLOUDY    59  48  67 S10       29.80F
HANKSVILLE     CLOUDY    63  46  55 CALM      29.79S
MILFORD        CLOUDY    55  47  74 SW6       29.83S
MOAB/CYNLANDS  LGT RAIN  54  52  93 SW7       29.78S FOG
PRICE          CLOUDY    52  48  86 SE6       29.83S
ST GEORGE      CLOUDY    77  45  31 W14       29.75S
KANAB          MOSUNNY   66  41  39 W13       29.85S

$$

REGIONAL REPORTS     COLORADO/ARIZONA

CITY           SKY/WX    TMP DP  RH WIND       PRES   REMARKS
CRAIG, CO      CLOUDY    56  44  64 W15       29.77R
GRAND JUNCTION CLOUDY    55  49  80 CALM      29.78F
RIFLE          LGT RAIN  54  48  80 W21       29.78R
MONTROSE       CLOUDY    56  47  71 SE7       29.83F
CORTEZ         MOSUNNY   54  49  83 SW13      29.86S
PAGE, AZ       MOSUNNY   68  44  42 VRB3      29.78F
GRAND CANYON   LGT RAIN  56  41  57 W6        29.94S
KINGMAN        SUNNY     73  40  30 SW24      29.83F
FLAGSTAFF      PTSUNNY   50  46  86 SW16      29.99S

$$

REGIONAL REPORTS    NEVADA/IDAHO/WYOMING

CITY           SKY/WX    TMP DP  RH WIND       PRES   REMARKS
LAS VEGAS, NV  MOSUNNY   85  30  13 SW15G25   29.64F
ELY            CLOUDY    56  38  50 N15       29.89F
ELKO           CLOUDY    66  34  30 E7        29.79R
POCATELLO, ID  PTSUNNY   67  41  38 W5        29.75R
BURLEY         CLOUDY    65  28  24 W17G24    29.75S
EVANSTON, WY   CLOUDY    47  43  86 N6        29.88F
ROCK SPRINGS   CLOUDY    53  41  63 NW10      29.83R
KEMMERER       CLOUDY    46  43  87 W8        29.88F

$$


USA.gov is the U.S. government's official web portal to all federal, state and local government web resources and services.